W4FY Weather Reports


time (UTC)temp
F
wind
direction
speed
knots
gust
knots
rain 1hr
in
rain 24hr
in
rain mn
in
humidity
%
barometer
mb
20260505040005 50 226 4.3 8.7 0.00 0.00 0.00 65 1022.6
20260505035616 50 226 4.3 9.6 0.00 0.00 0.00 65 1023.0
20260505034503 51 227 3.5 9.6 0.00 0.00 0.00 66 1023.0
20260505033603 51 220 4.3 11.3 0.00 0.00 0.00 66 1023.4
20260505032703 51 228 4.3 8.7 0.00 0.00 0.00 67 1023.4
20260505031803 51 224 4.3 11.3 0.00 0.00 0.00 67 1023.4
20260505030903 51 225 4.3 7.8 0.00 0.00 0.00 66 1023.4
20260505030216 51 228 4.3 8.7 0.00 0.00 0.00 66 1023.4
20260505025618 51 231 4.3 8.7 0.00 0.00 0.00 66 1023.4
20260505024503 52 231 3.5 7.0 0.00 0.00 0.00 66 1023.4
20260505023603 52 228 3.5 8.7 0.00 0.00 0.00 65 1023.8
20260505022703 52 230 3.5 8.7 0.00 0.00 0.00 65 1023.8
20260505021803 52 234 3.5 7.0 0.00 0.00 0.00 64 1023.4
20260505020903 52 227 3.5 7.8 0.00 0.00 0.00 63 1023.4
20260505020218 53 229 3.5 7.0 0.00 0.00 0.00 63 1023.4
20260505015403 53 230 2.6 6.1 0.00 0.00 0.00 62 1023.4
20260505014503 54 233 3.5 8.7 0.00 0.00 0.00 60 1023.4
20260505013603 54 228 3.5 7.0 0.00 0.00 0.00 60 1023.0
20260505012703 54 243 2.6 6.1 0.00 0.00 0.00 59 1023.4
20260505011803 54 235 2.6 7.8 0.00 0.00 0.00 57 1023.0
20260505010903 55 234 2.6 8.7 0.00 0.00 0.00 57 1022.6
20260505010004 55 249 1.7 8.7 0.00 0.00 0.00 55 1023.0
20260505005403 55 241 1.7 7.8 0.00 0.00 0.00 55 1023.0
20260505004503 55 224 1.7 3.5 0.00 0.00 0.00 55 1023.0
20260505003603 55 252 1.7 6.1 0.00 0.00 0.00 54 1022.6
20260505002703 56 252 2.6 6.1 0.00 0.00 0.00 53 1023.0
20260505002017 56 231 2.6 6.1 0.00 0.00 0.00 52 1022.6
20260505000903 56 232 2.6 5.2 0.00 0.00 0.00 50 1022.6
20260505000003 57 232 3.5 8.7 0.00 0.00 0.00 48 1022.6
20260504235403 57 239 2.6 6.1 0.00 0.00 0.00 48 1022.6
20260504234503 58 240 1.7 6.1 0.00 0.00 0.00 48 1022.6
20260504233603 58 234 2.6 5.2 0.00 0.00 0.00 45 1022.6
20260504232703 59 219 1.7 5.2 0.00 0.00 0.00 44 1022.6
20260504231803 60 221 2.6 6.1 0.00 0.00 0.00 43 1022.6
20260504230903 61 223 2.6 7.0 0.00 0.00 0.00 41 1022.6
20260504230003 61 225 2.6 7.0 0.00 0.00 0.00 40 1022.6
20260504225616 61 225 2.6 7.0 0.00 0.00 0.00 38 1022.6
20260504224503 62 232 1.7 6.1 0.00 0.00 0.00 37 1022.6
20260504223817 62 211 1.7 5.2 0.00 0.00 0.00 36 1022.6
20260504222703 62 223 1.7 7.8 0.00 0.00 0.00 35 1022.6
20260504222018 63 250 1.7 6.1 0.00 0.00 0.00 38 1022.6
20260504220903 63 233 1.7 6.1 0.00 0.00 0.00 36 1022.6
20260504220217 63 207 2.6 7.8 0.00 0.00 0.00 38 1022.6
20260504215403 64 200 1.7 7.8 0.00 0.00 0.00 39 1022.6
20260504214503 64 210 1.7 5.2 0.00 0.00 0.00 41 1022.6
20260504213603 64 241 1.7 5.2 0.00 0.00 0.00 38 1022.6
20260504212918 64 212 0.9 3.5 0.00 0.00 0.00 39 1022.6
20260504211803 65 200 1.7 7.0 0.00 0.00 0.00 41 1022.6
20260504210903 65 206 0.9 7.0 0.00 0.00 0.00 40 1022.6
20260504210004 65 219 1.7 7.0 0.00 0.00 0.00 40 1022.6
20260504205403 66 221 1.7 7.0 0.00 0.00 0.00 41 1022.6
20260504204503 66 183 1.7 5.2 0.00 0.00 0.00 40 1022.6
20260504203816 66 195 1.7 5.2 0.00 0.00 0.00 41 1023.0
20260504202703 66 241 1.7 6.1 0.00 0.00 0.00 41 1022.6
20260504201803 67 222 1.7 5.2 0.00 0.00 0.00 42 1023.0
20260504200903 66 251 1.7 6.1 0.00 0.00 0.00 40 1023.0
20260504200218 65 267 2.6 7.0 0.00 0.00 0.00 42 1023.4
20260504195403 66 238 1.7 6.1 0.00 0.00 0.00 41 1023.4
20260504194717 66 188 1.7 6.1 0.00 0.00 0.00 43 1023.4
20260504193603 67 216 1.7 6.1 0.00 0.00 0.00 42 1023.4
20260504192703 66 144 1.7 5.2 0.00 0.00 0.00 42 1023.8
20260504191803 65 174 1.7 6.1 0.00 0.00 0.00 42 1023.8
20260504190903 66 190 1.7 7.8 0.00 0.00 0.00 41 1023.8
20260504190004 66 187 1.7 7.0 0.00 0.00 0.00 45 1023.8
20260504185403 66 219 2.6 7.0 0.00 0.00 0.00 39 1024.1
20260504184503 66 227 1.7 6.1 0.00 0.00 0.00 38 1023.8
20260504183603 64 203 2.6 7.0 0.00 0.00 0.00 39 1023.8
20260504182917 66 224 2.6 6.1 0.00 0.00 0.00 39 1024.1
20260504181803 64 245 2.6 7.0 0.00 0.00 0.00 41 1024.1
20260504181118 64 219 2.6 6.1 0.00 0.00 0.00 43 1024.1
20260504180217 64 207 2.6 7.0 0.00 0.00 0.00 44 1024.1
20260504175617 65 201 1.7 6.1 0.00 0.00 0.00 44 1024.1
20260504174503 64 227 1.7 7.8 0.00 0.00 0.00 48 1024.1
20260504173603 63 201 2.6 7.8 0.00 0.00 0.00 46 1024.1
20260504172917 63 183 1.7 5.2 0.00 0.00 0.00 47 1024.1
20260504171803 62 197 1.7 5.2 0.00 0.00 0.00 49 1024.5
20260504171117 62 151 1.7 6.1 0.00 0.00 0.00 51 1024.5
20260504150903 57 285 0.9 3.5 0.00 0.00 0.00 48 1025.3
20260504140903 59 278 1.7 7.0 0.00 0.00 0.00 42 1025.7
20260504130217 54 285 0.9 3.5 0.00 0.00 0.00 49 1024.5
20260504120217 48 240 1.7 3.5 0.00 0.00 0.00 55 1023.8
20260504081803 41 132 1.7 7.8 0.00 0.00 0.00 69 1023.8
20260504080903 41 111 1.7 14.8 0.00 0.00 0.00 71 1023.8
20260504050003 42 16 0.0 1.7 0.00 0.00 0.00 56 1023.8
20260504045403 42 15 0.0 1.7 0.00 0.00 0.00 55 1023.8
20260504044503 42 15 0.0 1.7 0.00 0.00 0.00 56 1024.1
20260504043816 42 15 0.0 2.6 0.00 0.00 0.00 55 1023.8
20260504042703 42 1 0.0 2.6 0.00 0.00 0.00 55 1023.8
20260504041803 42 347 0.0 3.5 0.00 0.00 0.00 52 1023.8
20260504040903 43 318 1.7 7.0 0.00 0.00 0.00 50 1023.8